Change the Weather History Date:

Thursday, April 10, 2014

  Actual Average Record
Temperature  
Mean Temperature 45 °F 40 °F  
Max Temperature 59 °F 52 °F 73 °F (1985)
Min Temperature 31 °F 28 °F 14 °F (1975)
Degree Days  
Heating Degree Days 20    
Month to date heating degree days 228  
Since 1 July heating degree days 6932  
Cooling Degree Days 0    
Month to date cooling degree days 0  
Year to date cooling degree days 0  
Moisture  
Dew Point 18 °F    
Average Humidity 40    
Maximum Humidity 69    
Minimum Humidity 11    
Precipitation  
Precipitation 0.00 in 0.03 in 0.43 in (1963)
Month to date precipitation 0.01 0.32  
Year to date precipitation 0.58 1.40  
Snow  
Snow 0.00 in - - ()
Snow Depth 0.00 in    
Sea Level Pressure  
Sea Level Pressure 29.98 in    
Wind  
Wind Speed 8 mph (SW)    
Max Wind Speed 21 mph    
Max Gust Speed 30 mph    
Visibility 10 miles    
Events      
T = Trace of Precipitation, MM = Missing Value Source: NWS Daily Summary

Daily Weather History Graph

Daily Weather History Graph

Search for Another Location

Airport or City:

Trip Planner

Search our weather history database for the weather conditions in past years. The results will help you decide how hot, cold, wet, or windy it might be!

Date:

Astronomy

Apr. 10, 2014 Rise Set
Actual Time 6:53 AM MDT 8:09 PM MDT
Civil Twilight 6:23 AM MDT 8:40 PM MDT
Nautical Twilight 5:47 AM MDT 9:17 PM MDT
Astronomical Twilight 5:08 AM MDT 9:56 PM MDT
Moon 3:46 PM MDT (4/10) 4:31 AM MDT (4/10)
Length of Visible Light 14h 16m
Length of Day
13h 15m
Waxing Gibbous, 80% of the Moon is Illuminated
Apr 10
Waxing Gibbous
Apr 15
Full
Apr 22
Last Quarter
Apr 29
New
May 6
First Quarter

Hourly Weather History & Observations

Time (MDT) Temp. Windchill Dew Point Humidity Pressure Visibility Wind Dir Wind Speed Gust Speed Precip Events Conditions
12:53 AM 39.0 °F 31.4 °F 26.1 °F 60% 29.94 in 10.0 mi SSW 12.7 mph - N/A   Clear
1:53 AM 37.9 °F 33.5 °F 24.1 °F 57% 29.96 in 10.0 mi South 5.8 mph - N/A   Clear
2:53 AM 37.0 °F 29.8 °F 25.0 °F 62% 29.94 in 10.0 mi SSW 10.4 mph - N/A   Partly Cloudy
3:53 AM 33.1 °F - 24.1 °F 70% 29.98 in 10.0 mi Calm Calm - N/A   Clear
4:53 AM 33.1 °F 26.1 °F 23.0 °F 66% 29.97 in 10.0 mi SSW 8.1 mph - N/A   Clear
5:53 AM 34.0 °F 28.0 °F 24.1 °F 67% 29.98 in 10.0 mi SSW 6.9 mph - N/A   Clear
6:53 AM 34.0 °F 29.8 °F 23.0 °F 64% 30.01 in 10.0 mi SSW 4.6 mph - N/A   Clear
7:53 AM 35.1 °F 30.1 °F 24.1 °F 64% 30.02 in 10.0 mi SSW 5.8 mph - N/A   Scattered Clouds
8:53 AM 37.9 °F - 24.1 °F 57% 30.05 in 10.0 mi Calm Calm - N/A   Partly Cloudy
9:53 AM 43.0 °F 41.3 °F 21.9 °F 43% 30.02 in 10.0 mi East 3.5 mph - N/A   Mostly Cloudy
10:53 AM 46.9 °F - 15.1 °F 28% 30.01 in 10.0 mi WSW 12.7 mph - N/A   Clear
11:53 AM 50.0 °F - 14.0 °F 24% 30.00 in 10.0 mi WSW 15.0 mph 21.9 mph N/A   Clear
12:53 PM 52.0 °F - 19.9 °F 28% 29.98 in 10.0 mi South 11.5 mph 18.4 mph N/A   Clear
1:53 PM 55.0 °F - 5.0 °F 13% 29.97 in 10.0 mi SW 12.7 mph 19.6 mph N/A   Clear
2:53 PM 57.0 °F - 3.9 °F 12% 29.97 in 10.0 mi WSW 15.0 mph 25.3 mph N/A   Clear
3:53 PM 57.0 °F - 6.1 °F 13% 29.96 in 10.0 mi West 12.7 mph - N/A   Clear
4:53 PM 57.9 °F - 10.0 °F 15% 29.95 in 10.0 mi West 12.7 mph - N/A   Clear
5:53 PM 57.0 °F - 14.0 °F 18% 29.94 in 10.0 mi West 16.1 mph 23.0 mph N/A   Clear
6:53 PM 55.0 °F - 14.0 °F 20% 29.96 in 10.0 mi West 15.0 mph - N/A   Clear
7:53 PM 50.0 °F - 16.0 °F 26% 29.98 in 10.0 mi WNW 9.2 mph - N/A   Clear
8:53 PM 51.1 °F - 15.1 °F 24% 29.99 in 10.0 mi Calm Calm - N/A   Clear
9:53 PM 45.0 °F 40.6 °F 18.0 °F 34% 30.00 in 10.0 mi SSE 8.1 mph - N/A   Clear
10:53 PM 44.1 °F 40.8 °F 17.1 °F 34% 29.99 in 10.0 mi WSW 5.8 mph - N/A   Clear
11:53 PM 43.0 °F 39.5 °F 17.1 °F 35% 29.97 in 10.0 mi South 5.8 mph - N/A   Clear